Location: Chenereilles
(45.4866°N, 4.0790°E)
Time: 18:14:22
(UTC+00:00)

GEOS 3 Rocket - Pass Details

Date: 12 November 2019
Orbit: 786 x 834 km, 115.0° (Epoch: 14 December)

Event Time Altitude Azimuth Distance (km) Brightness Sun altitude
Exits shadow 17:17:33 - 35° (NE) 2,780 5.9 -10.8°
Reaches altitude 10° 17:18:29 10° 34° (NE) 2,404 5.6 -11.0°
Maximum altitude 17:23:40 68° 313° (NW) 882 3.9 -11.8°
Drops below altitude 10° 17:28:53 10° 231° (SW) 2,420 7.2 -12.7°
Sets 17:31:12 0° 229° (SW) 3,355 8.0 -13.1°
